Regional Weather Roundup
Issued by NWS Cleveland, OH

Home | Current Version | Previous Version | Text Only | Print | Product List | Glossary Off
Versions: 1 2 3 4 5 6 7 8 9 10 11 12 13 14 15 16 17 18 19 20 21 22 23 24 25 26 27 28 29 30 31 32 33 34 35 36 37 38 39 40 41 42 43 44 45 46 47 48 49 50

000
ASUS41 KCLE 021900
RWRCLE
OHIO REGIONAL WEATHER ROUNDUP
NATIONAL WEATHER SERVICE WILMINGTON, OH
300 PM EDT MON MAY 02 2016

NOTE: "FAIR" INDICATES FEW OR NO CLOUDS BELOW 12,000 FEET WITH NO
SIGNIFICANT WEATHER AND/OR OBSTRUCTIONS TO VISIBILITY.

OHZ001>008-015>018-024>027-034-035-043-044-022000-
   NORTHWEST OHIO

CITY           SKY/WX    TMP DP  RH WIND       PRES   REMARKS
DEFIANCE       CLOUDY    53  47  79 NE9       30.01F
FINDLAY        CLOUDY    53  44  71 NE9       30.00F
TOLEDO EXPRESS CLOUDY    52  45  77 E6        30.02R
TOLEDO EXEC    CLOUDY    52  46  80 VRB7      30.04R
LIMA           CLOUDY    52  48  86 NE8       30.01R
$$

OHZ009>014-019>023-028>033-038-089-022000-
   NORTHEAST OHIO

CITY           SKY/WX    TMP DP  RH WIND       PRES   REMARKS
CLE-HOPKINS    CLOUDY    50  45  83 N9        30.04R
CLE-LAKEFRONT  CLOUDY    49  45  86 NE13      30.02R
CUY CO. ARPT   CLOUDY    50  46  87 NE12      30.00S
LORAIN-ELYRIA  CLOUDY    50  43  77 NE8       30.02R
ASHTABULA      CLOUDY    47  43  86 NE6       30.01R
AKRON-CANTON   CLOUDY    53  46  77 N6        29.99R
WOOSTER        NOT AVBL
MANSFIELD      CLOUDY    50  46  86 NE8       29.99S
YOUNGSTOWN     CLOUDY    51  45  79 N5        29.97R
$$

OHZ042-051>053-060>062-070>072-077>081-022000-
  SOUTHWEST OHIO

CITY           SKY/WX    TMP DP  RH WIND       PRES   REMARKS
CINC-COVINGTON PTSUNNY   64  53  67 W9        29.96F
CINC-LUNKEN    PTSUNNY   66  55  67 W8        29.96R
HAMILTON       PTSUNNY   67  53  61 W7        29.96S
DAYTON         NOT AVBL
WRIGHT-PAT AFB NOT AVBL
DAYTON GENERAL PTSUNNY   62  52  69 N6        29.96R
WILMINGTON     PTSUNNY   62  55  77 N7        29.95R
$$

OHZ036-037-039>041-045>050-054>059-063>069-073>076-082>088-022000-
  CENTRAL AND SOUTHEAST OHIO

CITY           SKY/WX    TMP DP  RH WIND       PRES   REMARKS
COLUMBUS       CLOUDY    59  52  77 N10       29.95F
OSU AIRPORT    PTSUNNY   59  52  77 N8        29.96F
BOLTON FIELD   CLOUDY    61  54  77 N8        29.96F
RICKENBACK AFB NOT AVBL
NEWARK         CLOUDY    65  53  65 NW9       29.94F
MARION         CLOUDY    52  48  86 N12       30.00R
LANCASTER      PTSUNNY   64  54  69 NW10      29.95S
ZANESVILLE     FAIR      66  55  67 NW13      29.94R
NEW PHILLY     CLOUDY    57  49  74 N9        29.97R
$$




USA.gov is the U.S. government's official web portal to all federal, state and local government web resources and services.